Time,TemperatureF,DewpointF,PressureIn,WindDirection,WindDirectionDegrees,WindSpeedMPH,WindSpeedGustMPH,Humidity,HourlyPrecipIn,Conditions,Clouds,dailyrainin,SoftwareType,DateUTC
2013-06-07 00:12:00,73.0,-99.9,-100.00,North,351,4.0,-999.0,106,0.00,,,-99.99,,2013-06-07 05:12:00,
2013-06-07 00:23:00,73.0,-99.9,-100.00,North,351,4.0,-999.0,106,0.00,,,-99.99,,2013-06-07 05:23:00,
2013-06-07 00:32:00,73.0,-99.9,-100.00,North,351,4.0,-999.0,106,0.00,,,-99.99,,2013-06-07 05:32:00,
2013-06-07 00:43:00,73.0,-99.9,-100.00,North,351,4.0,-999.0,106,0.00,,,-99.99,,2013-06-07 05:43:00,
2013-06-07 01:13:00,71.0,-99.9,-100.00,WNW,293,6.0,-999.0,116,0.00,,,-99.99,,2013-06-07 06:13:00,
2013-06-07 01:23:00,71.0,-99.9,-100.00,WNW,293,6.0,-999.0,116,0.00,,,-99.99,,2013-06-07 06:23:00,
2013-06-07 01:32:00,71.0,-99.9,-100.00,WNW,293,6.0,-999.0,116,0.00,,,-99.99,,2013-06-07 06:32:00,
2013-06-07 01:43:00,71.0,-99.9,-100.00,WNW,293,6.0,-999.0,116,0.00,,,-99.99,,2013-06-07 06:43:00,
2013-06-07 02:12:00,71.0,-99.9,-100.00,West,274,9.0,-999.0,118,0.00,,,-99.99,,2013-06-07 07:12:00,
2013-06-07 02:22:00,71.0,-99.9,-100.00,West,274,9.0,-999.0,118,0.00,,,-99.99,,2013-06-07 07:22:00,
2013-06-07 02:32:00,71.0,-99.9,-100.00,West,274,9.0,-999.0,118,0.00,,,-99.99,,2013-06-07 07:32:00,
2013-06-07 02:42:00,71.0,-99.9,-100.00,West,274,9.0,-999.0,118,0.00,,,-99.99,,2013-06-07 07:42:00,
2013-06-07 03:12:00,71.0,-99.9,-100.00,WNW,302,7.0,-999.0,118,0.00,,,-99.99,,2013-06-07 08:12:00,
2013-06-07 03:22:00,71.0,-99.9,-100.00,WNW,302,7.0,-999.0,118,0.00,,,-99.99,,2013-06-07 08:22:00,
2013-06-07 03:32:00,71.0,-99.9,-100.00,WNW,302,7.0,-999.0,118,0.00,,,-99.99,,2013-06-07 08:32:00,
2013-06-07 03:43:00,71.0,-99.9,-100.00,WNW,302,7.0,-999.0,118,0.00,,,-99.99,,2013-06-07 08:43:00,
2013-06-07 04:12:00,71.0,-99.9,-100.00,NW,322,8.0,-999.0,118,0.00,,,-99.99,,2013-06-07 09:12:00,
2013-06-07 04:22:00,71.0,-99.9,-100.00,NW,322,8.0,-999.0,118,0.00,,,-99.99,,2013-06-07 09:22:00,
2013-06-07 04:33:00,71.0,-99.9,-100.00,NW,322,8.0,-999.0,118,0.00,,,-99.99,,2013-06-07 09:33:00,
2013-06-07 04:43:00,71.0,-99.9,-100.00,NW,322,8.0,-999.0,118,0.00,,,-99.99,,2013-06-07 09:43:00,
2013-06-07 05:23:00,70.0,-99.9,-100.00,North,355,6.0,-999.0,119,0.00,,,-99.99,,2013-06-07 10:23:00,
2013-06-07 05:33:00,70.0,-99.9,-100.00,North,355,6.0,-999.0,119,0.00,,,-99.99,,2013-06-07 10:33:00,
2013-06-07 05:43:00,70.0,-99.9,-100.00,North,355,6.0,-999.0,119,0.00,,,-99.99,,2013-06-07 10:43:00,
2013-06-07 06:13:00,69.0,-99.9,-100.00,NW,317,6.0,-999.0,121,0.00,,,-99.99,,2013-06-07 11:13:00,
2013-06-07 06:22:00,69.0,-99.9,-100.00,NW,317,6.0,-999.0,121,0.00,,,-99.99,,2013-06-07 11:22:00,
2013-06-07 06:32:00,69.0,-99.9,-100.00,NW,317,6.0,-999.0,121,0.00,,,-99.99,,2013-06-07 11:32:00,
2013-06-07 06:42:00,69.0,-99.9,-100.00,NW,317,6.0,-999.0,121,0.00,,,-99.99,,2013-06-07 11:42:00,
2013-06-07 07:13:00,70.0,-99.9,-100.00,NW,313,5.0,-999.0,120,0.00,,,-99.99,,2013-06-07 12:13:00,
2013-06-07 07:22:00,70.0,-99.9,-100.00,NW,313,5.0,-999.0,120,0.00,,,-99.99,,2013-06-07 12:22:00,
2013-06-07 07:33:00,70.0,-99.9,-100.00,NW,313,5.0,-999.0,120,0.00,,,-99.99,,2013-06-07 12:33:00,
2013-06-07 07:42:00,70.0,-99.9,-100.00,NW,313,5.0,-999.0,120,0.00,,,-99.99,,2013-06-07 12:42:00,
2013-06-07 08:13:00,71.0,-99.9,-100.00,NW,326,6.0,-999.0,116,0.00,,,-99.99,,2013-06-07 13:13:00,
2013-06-07 08:22:00,71.0,-99.9,-100.00,NW,326,6.0,-999.0,116,0.00,,,-99.99,,2013-06-07 13:22:00,
2013-06-07 08:33:00,71.0,-99.9,-100.00,NW,326,6.0,-999.0,116,0.00,,,-99.99,,2013-06-07 13:33:00,
2013-06-07 08:43:00,71.0,-99.9,-100.00,NW,326,6.0,-999.0,116,0.00,,,-99.99,,2013-06-07 13:43:00,
2013-06-07 09:13:00,72.0,-99.9,-100.00,NNW,331,5.0,-999.0,103,0.00,,,-99.99,,2013-06-07 14:13:00,
2013-06-07 09:23:00,72.0,-99.9,-100.00,NNW,331,5.0,-999.0,103,0.00,,,-99.99,,2013-06-07 14:23:00,
2013-06-07 09:33:00,72.0,-99.9,-100.00,NNW,331,5.0,-999.0,103,0.00,,,-99.99,,2013-06-07 14:33:00,
2013-06-07 09:42:00,72.0,-99.9,-100.00,NNW,331,5.0,-999.0,103,0.00,,,-99.99,,2013-06-07 14:42:00,
2013-06-07 10:12:00,75.0,71.0,-100.00,NW,314,5.0,-999.0,86,0.00,,,-99.99,,2013-06-07 15:12:00,
2013-06-07 10:23:00,75.0,71.0,-100.00,NW,314,5.0,-999.0,86,0.00,,,-99.99,,2013-06-07 15:23:00,
2013-06-07 10:33:00,75.0,71.0,-100.00,NW,314,5.0,-999.0,86,0.00,,,-99.99,,2013-06-07 15:33:00,
2013-06-07 10:43:00,75.0,71.0,-100.00,NW,314,5.0,-999.0,86,0.00,,,-99.99,,2013-06-07 15:43:00,
2013-06-07 11:13:00,78.0,71.0,-100.00,WSW,249,3.0,-999.0,78,0.01,,,-99.99,,2013-06-07 16:13:00,
2013-06-07 11:22:00,78.0,71.0,-100.00,WSW,249,3.0,-999.0,78,0.01,,,-99.99,,2013-06-07 16:22:00,
2013-06-07 11:33:00,78.0,71.0,-100.00,WSW,249,3.0,-999.0,78,0.01,,,-99.99,,2013-06-07 16:33:00,
2013-06-07 11:43:00,78.0,71.0,-100.00,WSW,249,3.0,-999.0,78,0.01,,,-99.99,,2013-06-07 16:43:00,
2013-06-07 12:13:00,78.0,72.0,-100.00,SSW,206,4.0,-999.0,82,0.00,,,-99.99,,2013-06-07 17:13:00,
2013-06-07 12:23:00,78.0,72.0,-100.00,SSW,206,4.0,-999.0,82,0.00,,,-99.99,,2013-06-07 17:23:00,
2013-06-07 12:32:00,78.0,72.0,-100.00,SSW,206,4.0,-999.0,82,0.00,,,-99.99,,2013-06-07 17:32:00,
2013-06-07 12:42:00,78.0,72.0,-100.00,SSW,206,4.0,-999.0,82,0.00,,,-99.99,,2013-06-07 17:42:00,
2013-06-07 13:19:00,79.0,72.0,-100.00,SW,217,4.0,-999.0,79,0.00,,,-99.99,,2013-06-07 18:19:00,
2013-06-07 13:35:00,79.0,72.0,-100.00,SW,217,4.0,-999.0,79,0.00,,,-99.99,,2013-06-07 18:35:00,
2013-06-07 13:44:00,79.0,72.0,-100.00,SW,217,4.0,-999.0,79,0.00,,,-99.99,,2013-06-07 18:44:00,
2013-06-07 13:45:00,80.0,73.0,-100.00,WSW,248,11.0,-999.0,79,0.00,,,-99.99,,2013-06-07 18:45:00,
2013-06-07 14:15:00,80.0,73.0,-100.00,WSW,248,11.0,-999.0,79,0.00,,,-99.99,,2013-06-07 19:15:00,
2013-06-07 14:28:00,80.0,73.0,-100.00,WSW,248,11.0,-999.0,79,0.00,,,-99.99,,2013-06-07 19:28:00,
2013-06-07 14:45:00,81.0,73.0,-100.00,West,262,10.0,-999.0,76,0.00,,,-99.99,,2013-06-07 19:45:00,
2013-06-07 15:16:00,81.0,73.0,-100.00,West,262,10.0,-999.0,76,0.00,,,-99.99,,2013-06-07 20:16:00,
2013-06-07 15:38:00,81.0,73.0,-100.00,West,262,10.0,-999.0,76,0.00,,,-99.99,,2013-06-07 20:38:00,
2013-06-07 15:45:00,82.0,73.0,-100.00,WSW,247,10.0,-999.0,74,0.00,,,-99.99,,2013-06-07 20:45:00,
2013-06-07 16:27:00,82.0,73.0,-100.00,WSW,247,10.0,-999.0,74,0.00,,,-99.99,,2013-06-07 21:27:00,
2013-06-07 16:45:00,83.0,73.0,-100.00,WSW,256,11.0,-999.0,72,0.00,,,-99.99,,2013-06-07 21:45:00,
2013-06-07 17:21:00,83.0,73.0,-100.00,WSW,256,11.0,-999.0,72,0.00,,,-99.99,,2013-06-07 22:21:00,
2013-06-07 17:28:00,83.0,73.0,-100.00,WSW,256,11.0,-999.0,72,0.00,,,-99.99,,2013-06-07 22:28:00,
2013-06-07 17:38:00,83.0,73.0,-100.00,WSW,256,11.0,-999.0,72,0.00,,,-99.99,,2013-06-07 22:38:00,
2013-06-07 17:45:00,83.0,73.0,-100.00,WSW,257,10.0,-999.0,72,0.00,,,-99.99,,2013-06-07 22:45:00,
2013-06-07 18:18:00,83.0,73.0,-100.00,WSW,257,10.0,-999.0,72,0.00,,,-99.99,,2013-06-07 23:18:00,
2013-06-07 18:29:00,83.0,73.0,-100.00,WSW,257,10.0,-999.0,72,0.00,,,-99.99,,2013-06-07 23:29:00,
2013-06-07 18:45:00,82.0,73.0,-100.00,West,263,10.0,-999.0,74,0.00,,,-99.99,,2013-06-07 23:45:00,
2013-06-07 19:17:00,82.0,73.0,-100.00,West,263,10.0,-999.0,74,0.00,,,-99.99,,2013-06-08 00:17:00,
2013-06-07 19:28:00,82.0,73.0,-100.00,West,263,10.0,-999.0,74,0.00,,,-99.99,,2013-06-08 00:28:00,
2013-06-07 19:34:00,82.0,73.0,-100.00,West,263,10.0,-999.0,74,0.00,,,-99.99,,2013-06-08 00:34:00,
2013-06-07 20:18:00,81.0,73.0,-100.00,West,265,9.0,-999.0,76,0.00,,,-99.99,,2013-06-08 01:18:00,
2013-06-07 20:28:00,81.0,73.0,-100.00,West,265,9.0,-999.0,76,0.00,,,-99.99,,2013-06-08 01:28:00,
2013-06-07 20:38:00,81.0,73.0,-100.00,West,265,9.0,-999.0,76,0.00,,,-99.99,,2013-06-08 01:38:00,
2013-06-07 20:44:00,81.0,73.0,-100.00,West,265,9.0,-999.0,76,0.00,,,-99.99,,2013-06-08 01:44:00,
2013-06-07 20:45:00,80.0,74.0,-100.00,WSW,254,6.0,-999.0,80,0.00,,,-99.99,,2013-06-08 01:45:00,
2013-06-07 21:15:00,80.0,74.0,-100.00,WSW,254,6.0,-999.0,80,0.00,,,-99.99,,2013-06-08 02:15:00,
2013-06-07 21:29:00,80.0,74.0,-100.00,WSW,254,6.0,-999.0,80,0.00,,,-99.99,,2013-06-08 02:29:00,
2013-06-07 21:34:00,80.0,74.0,-100.00,WSW,254,6.0,-999.0,80,0.00,,,-99.99,,2013-06-08 02:34:00,
2013-06-07 21:45:00,79.0,74.0,-100.00,West,278,4.0,-999.0,83,0.00,,,-99.99,,2013-06-08 02:45:00,
2013-06-07 22:27:00,79.0,74.0,-100.00,West,278,4.0,-999.0,83,0.00,,,-99.99,,2013-06-08 03:27:00,
2013-06-07 22:36:00,79.0,74.0,-100.00,West,278,4.0,-999.0,83,0.00,,,-99.99,,2013-06-08 03:36:00,
2013-06-07 23:13:00,79.0,74.0,-100.00,WNW,302,2.0,-999.0,84,0.00,,,-99.99,,2013-06-08 04:13:00,
2013-06-07 23:23:00,79.0,74.0,-100.00,WNW,302,2.0,-999.0,84,0.00,,,-99.99,,2013-06-08 04:23:00,
2013-06-07 23:33:00,79.0,74.0,-100.00,WNW,302,2.0,-999.0,84,0.00,,,-99.99,,2013-06-08 04:33:00,
2013-06-07 23:42:00,79.0,74.0,-100.00,WNW,302,2.0,-999.0,84,0.00,,,-99.99,,2013-06-08 04:42:00,